Time,TemperatureF,DewpointF,PressureIn,WindDirection,WindDirectionDegrees,WindSpeedMPH,WindSpeedGustMPH,Humidity,HourlyPrecipIn,Conditions,Clouds,dailyrainin,SoftwareType,DateUTC
2013-04-22 00:01:00,39.3,35.8,30.52,ESE,122,12.0,13.0,87,0.00,,BKN055,0.00,VWS V13.01,2013-04-22 04:01:00,
2013-04-22 00:06:00,39.3,35.5,30.52,ESE,121,11.0,14.0,86,0.00,,BKN055,0.00,VWS V13.01,2013-04-22 04:06:00,
2013-04-22 00:11:00,39.4,35.6,30.52,SE,124,9.0,12.0,86,0.00,,BKN055,0.00,VWS V13.01,2013-04-22 04:11:00,
2013-04-22 00:16:00,39.3,35.8,30.52,ESE,121,11.0,12.0,87,0.00,,BKN055,0.00,VWS V13.01,2013-04-22 04:16:00,
2013-04-22 00:21:00,39.2,35.7,30.51,ESE,123,10.0,13.0,87,0.00,,BKN055,0.00,VWS V13.01,2013-04-22 04:21:00,
2013-04-22 00:27:00,39.1,36.1,30.51,ESE,115,11.0,12.0,89,0.00,,BKN055,0.00,VWS V13.01,2013-04-22 04:27:00,
2013-04-22 00:32:00,38.9,35.9,30.51,ESE,113,10.0,12.0,89,0.00,,BKN055,0.00,VWS V13.01,2013-04-22 04:32:00,
2013-04-22 00:37:00,38.9,35.9,30.51,SE,130,11.0,12.0,89,0.00,,BKN055,0.00,VWS V13.01,2013-04-22 04:37:00,
2013-04-22 00:42:00,38.8,35.8,30.51,ESE,111,10.0,12.0,89,0.00,,BKN055,0.00,VWS V13.01,2013-04-22 04:42:00,
2013-04-22 00:47:00,38.8,35.8,30.51,ESE,119,10.0,12.0,89,0.00,,BKN055,0.00,VWS V13.01,2013-04-22 04:47:00,
2013-04-22 00:52:00,38.8,35.8,30.51,ESE,117,9.0,11.0,89,0.00,,BKN055,0.00,VWS V13.01,2013-04-22 04:52:00,
2013-04-22 00:57:00,38.7,35.5,30.51,ESE,116,10.0,11.0,88,0.00,,BKN055,0.00,VWS V13.01,2013-04-22 04:57:00,
2013-04-22 01:02:00,38.6,35.6,30.51,ESE,123,10.0,11.0,89,0.00,,OVC090,0.00,VWS V13.01,2013-04-22 05:02:00,
2013-04-22 01:07:00,38.6,35.6,30.50,SE,128,9.0,12.0,89,0.00,,OVC090,0.00,VWS V13.01,2013-04-22 05:07:00,
2013-04-22 01:12:00,38.5,35.5,30.50,SE,128,8.0,12.0,89,0.00,,OVC090,0.00,VWS V13.01,2013-04-22 05:12:00,
2013-04-22 01:17:00,38.4,35.5,30.50,ESE,122,10.0,11.0,89,0.00,,OVC090,0.00,VWS V13.01,2013-04-22 05:17:00,
2013-04-22 01:22:00,38.3,35.3,30.50,SE,127,10.0,11.0,89,0.00,,OVC090,0.00,VWS V13.01,2013-04-22 05:22:00,
2013-04-22 01:27:00,38.2,35.2,30.50,ESE,121,9.0,11.0,89,0.00,,OVC090,0.00,VWS V13.01,2013-04-22 05:27:00,
2013-04-22 01:32:00,38.2,35.2,30.50,SE,126,9.0,11.0,89,0.00,,OVC090,0.00,VWS V13.01,2013-04-22 05:32:00,
2013-04-22 01:37:00,38.2,35.2,30.50,ESE,120,8.0,10.0,89,0.00,,OVC090,0.00,VWS V13.01,2013-04-22 05:37:00,
2013-04-22 01:42:00,38.3,35.1,30.50,SE,128,9.0,10.0,88,0.00,,OVC090,0.00,VWS V13.01,2013-04-22 05:42:00,
2013-04-22 01:47:00,38.2,35.0,30.49,ESE,121,8.0,11.0,88,0.00,,OVC090,0.00,VWS V13.01,2013-04-22 05:47:00,
2013-04-22 01:52:00,38.3,35.1,30.49,SE,135,10.0,11.0,88,0.00,,OVC090,0.00,VWS V13.01,2013-04-22 05:52:00,
2013-04-22 01:57:00,38.2,35.0,30.49,ESE,120,9.0,10.0,88,0.00,,OVC090,0.00,VWS V13.01,2013-04-22 05:57:00,
2013-04-22 02:02:00,38.3,35.3,30.49,SE,129,7.0,10.0,89,0.00,,CLR,0.00,VWS V13.01,2013-04-22 06:02:00,
2013-04-22 02:07:00,38.3,35.1,30.48,SE,137,6.0,10.0,88,0.00,,CLR,0.00,VWS V13.01,2013-04-22 06:07:00,
2013-04-22 02:12:00,38.4,34.6,30.48,SE,135,9.0,11.0,86,0.00,,CLR,0.00,VWS V13.01,2013-04-22 06:12:00,
2013-04-22 02:17:00,38.4,34.6,30.48,SE,136,10.0,11.0,86,0.00,,CLR,0.00,VWS V13.01,2013-04-22 06:17:00,
2013-04-22 02:22:00,38.5,34.7,30.48,SE,139,11.0,11.0,86,0.00,,CLR,0.00,VWS V13.01,2013-04-22 06:22:00,
2013-04-22 02:27:00,38.5,34.7,30.48,SE,135,9.0,13.0,86,0.00,,CLR,0.00,VWS V13.01,2013-04-22 06:27:00,
2013-04-22 02:32:00,38.5,34.4,30.48,SE,138,10.0,12.0,85,0.00,,CLR,0.00,VWS V13.01,2013-04-22 06:32:00,
2013-04-22 02:37:00,38.5,34.4,30.47,SSE,161,10.0,13.0,85,0.00,,CLR,0.00,VWS V13.01,2013-04-22 06:37:00,
2013-04-22 02:42:00,38.7,33.7,30.47,SSE,157,11.0,15.0,82,0.00,,CLR,0.00,VWS V13.01,2013-04-22 06:42:00,
2013-04-22 02:47:00,38.8,33.5,30.47,SSE,149,14.0,15.0,81,0.00,,CLR,0.00,VWS V13.01,2013-04-22 06:47:00,
2013-04-22 02:52:00,38.8,33.5,30.47,SSE,157,13.0,15.0,81,0.00,,CLR,0.00,VWS V13.01,2013-04-22 06:52:00,
2013-04-22 02:57:00,38.7,33.4,30.47,SSE,150,12.0,15.0,81,0.00,,CLR,0.00,VWS V13.01,2013-04-22 06:57:00,
2013-04-22 03:02:00,38.7,33.7,30.47,SSE,156,13.0,15.0,82,0.00,,CLR,0.00,VWS V13.01,2013-04-22 07:02:00,
2013-04-22 03:07:00,38.6,33.3,30.47,SSE,148,9.0,16.0,81,0.00,,CLR,0.00,VWS V13.01,2013-04-22 07:07:00,
2013-04-22 03:12:00,38.6,33.6,30.46,SSE,153,10.0,13.0,82,0.00,,CLR,0.00,VWS V13.01,2013-04-22 07:12:00,
2013-04-22 03:17:00,38.6,33.6,30.46,SSE,154,10.0,13.0,82,0.00,,CLR,0.00,VWS V13.01,2013-04-22 07:17:00,
2013-04-22 03:22:00,38.6,33.3,30.46,SSE,154,9.0,14.0,81,0.00,,CLR,0.00,VWS V13.01,2013-04-22 07:22:00,
2013-04-22 03:27:00,38.6,33.0,30.46,South,177,12.0,13.0,80,0.00,,CLR,0.00,VWS V13.01,2013-04-22 07:27:00,
2013-04-22 03:32:00,38.6,33.0,30.46,South,177,14.0,16.0,80,0.00,,CLR,0.00,VWS V13.01,2013-04-22 07:32:00,
2013-04-22 03:38:00,38.7,33.1,30.46,South,170,12.0,15.0,80,0.00,,CLR,0.00,VWS V13.01,2013-04-22 07:38:00,
2013-04-22 03:43:00,38.8,33.5,30.46,SSE,161,10.0,15.0,81,0.00,,CLR,0.00,VWS V13.01,2013-04-22 07:43:00,
2013-04-22 03:48:00,38.7,33.1,30.46,South,177,10.0,13.0,80,0.00,,CLR,0.00,VWS V13.01,2013-04-22 07:48:00,
2013-04-22 03:53:00,38.7,33.4,30.46,South,183,10.0,14.0,81,0.00,,CLR,0.00,VWS V13.01,2013-04-22 07:53:00,
2013-04-22 03:58:00,38.7,33.1,30.46,South,176,14.0,15.0,80,0.00,,CLR,0.00,VWS V13.01,2013-04-22 07:58:00,
2013-04-22 04:03:00,38.7,32.4,30.46,SSE,167,8.0,15.0,78,0.00,,CLR,0.00,VWS V13.01,2013-04-22 08:03:00,
2013-04-22 04:08:00,38.6,32.7,30.45,SSE,163,11.0,15.0,79,0.00,,CLR,0.00,VWS V13.01,2013-04-22 08:08:00,
2013-04-22 04:13:00,38.6,33.0,30.46,South,173,12.0,14.0,80,0.00,,CLR,0.00,VWS V13.01,2013-04-22 08:13:00,
2013-04-22 04:18:00,38.6,33.0,30.45,South,178,12.0,14.0,80,0.00,,CLR,0.00,VWS V13.01,2013-04-22 08:18:00,
2013-04-22 04:23:00,38.6,33.3,30.45,South,177,10.0,14.0,81,0.00,,CLR,0.00,VWS V13.01,2013-04-22 08:23:00,
2013-04-22 04:28:00,38.5,32.6,30.45,WNW,292,12.0,15.0,79,0.00,,CLR,0.00,VWS V13.01,2013-04-22 08:28:00,
2013-04-22 04:33:00,38.5,32.6,30.45,WNW,297,13.0,15.0,79,0.00,,CLR,0.00,VWS V13.01,2013-04-22 08:33:00,
2013-04-22 04:38:00,38.6,32.7,30.45,WNW,298,15.0,16.0,79,0.00,,CLR,0.00,VWS V13.01,2013-04-22 08:38:00,
2013-04-22 04:43:00,38.6,32.0,30.45,WNW,297,15.0,17.0,77,0.00,,CLR,0.00,VWS V13.01,2013-04-22 08:43:00,
2013-04-22 04:48:00,38.6,32.0,30.45,WNW,298,16.0,17.0,77,0.00,,CLR,0.00,VWS V13.01,2013-04-22 08:48:00,
2013-04-22 04:53:00,38.6,32.3,30.45,NW,309,14.0,17.0,78,0.00,,CLR,0.00,VWS V13.01,2013-04-22 08:53:00,
2013-04-22 04:58:00,38.6,32.3,30.45,WNW,288,12.0,17.0,78,0.00,,CLR,0.00,VWS V13.01,2013-04-22 08:58:00,
2013-04-22 05:03:00,38.5,32.2,30.45,WNW,294,14.0,17.0,78,0.00,,CLR,0.00,VWS V13.01,2013-04-22 09:03:00,
2013-04-22 05:08:00,38.5,31.9,30.45,WNW,294,15.0,18.0,77,0.00,,CLR,0.00,VWS V13.01,2013-04-22 09:08:00,
2013-04-22 05:13:00,38.5,31.6,30.45,WNW,298,17.0,19.0,76,0.00,,CLR,0.00,VWS V13.01,2013-04-22 09:13:00,
2013-04-22 05:18:00,38.5,31.9,30.44,WNW,300,18.0,19.0,77,0.00,,CLR,0.00,VWS V13.01,2013-04-22 09:18:00,
2013-04-22 05:23:00,38.5,31.6,30.44,WNW,299,17.0,21.0,76,0.00,,CLR,0.00,VWS V13.01,2013-04-22 09:23:00,
2013-04-22 05:28:00,38.4,31.8,30.44,WNW,296,16.0,21.0,77,0.00,,CLR,0.00,VWS V13.01,2013-04-22 09:28:00,
2013-04-22 05:33:00,38.4,32.2,30.45,WNW,294,19.0,20.0,78,0.00,,CLR,0.00,VWS V13.01,2013-04-22 09:33:00,
2013-04-22 05:38:00,38.3,32.0,30.44,WNW,300,17.0,18.0,78,0.00,,CLR,0.00,VWS V13.01,2013-04-22 09:38:00,
2013-04-22 05:43:00,38.3,31.7,30.44,WNW,302,17.0,19.0,77,0.00,,CLR,0.00,VWS V13.01,2013-04-22 09:43:00,
2013-04-22 05:48:00,38.2,32.0,30.45,WNW,302,16.0,18.0,78,0.00,,CLR,0.00,VWS V13.01,2013-04-22 09:48:00,
2013-04-22 05:53:00,38.2,31.6,30.44,WNW,302,17.0,18.0,77,0.00,,CLR,0.00,VWS V13.01,2013-04-22 09:53:00,
2013-04-22 05:58:00,38.1,31.5,30.44,WNW,294,15.0,18.0,77,0.00,,CLR,0.00,VWS V13.01,2013-04-22 09:58:00,
2013-04-22 06:03:00,38.1,31.9,30.44,NW,306,14.0,18.0,78,0.00,,CLR,0.00,VWS V13.01,2013-04-22 10:03:00,
2013-04-22 06:08:00,38.1,31.9,30.44,WNW,296,14.0,18.0,78,0.00,,CLR,0.00,VWS V13.01,2013-04-22 10:08:00,
2013-04-22 06:13:00,38.1,32.2,30.44,WNW,295,15.0,17.0,79,0.00,,CLR,0.00,VWS V13.01,2013-04-22 10:13:00,
2013-04-22 06:18:00,38.1,32.2,30.45,WNW,302,17.0,19.0,79,0.00,,CLR,0.00,VWS V13.01,2013-04-22 10:18:00,
2013-04-22 06:23:00,38.1,32.2,30.45,WNW,302,14.0,19.0,79,0.00,,CLR,0.00,VWS V13.01,2013-04-22 10:23:00,
2013-04-22 06:28:00,38.1,31.9,30.44,WNW,301,15.0,18.0,78,0.00,,CLR,0.00,VWS V13.01,2013-04-22 10:28:00,
2013-04-22 06:33:00,38.1,31.5,30.45,WNW,300,20.0,20.0,77,0.00,,CLR,0.00,VWS V13.01,2013-04-22 10:33:00,
2013-04-22 06:38:00,38.2,32.0,30.45,NW,304,15.0,20.0,78,0.00,,CLR,0.00,VWS V13.01,2013-04-22 10:38:00,
2013-04-22 06:43:00,38.2,31.6,30.44,WNW,302,15.0,17.0,77,0.00,,CLR,0.00,VWS V13.01,2013-04-22 10:43:00,
2013-04-22 06:48:00,38.2,33.8,30.45,South,188,10.0,15.0,84,0.00,,CLR,0.00,VWS V13.01,2013-04-22 10:48:00,
2013-04-22 06:53:00,38.2,33.8,30.44,South,180,10.0,14.0,84,0.00,,CLR,0.00,VWS V13.01,2013-04-22 10:53:00,
2013-04-22 06:58:00,38.2,33.5,30.44,South,175,13.0,15.0,83,0.00,,CLR,0.00,VWS V13.01,2013-04-22 10:58:00,
2013-04-22 07:03:00,38.2,33.2,30.44,South,174,11.0,15.0,82,0.00,,OVC110,0.00,VWS V13.01,2013-04-22 11:03:00,
2013-04-22 07:08:00,38.2,33.5,30.44,SSE,167,10.0,15.0,83,0.00,,OVC110,0.00,VWS V13.01,2013-04-22 11:08:00,
2013-04-22 07:13:00,38.2,33.5,30.44,South,175,10.0,14.0,83,0.00,,OVC110,0.00,VWS V13.01,2013-04-22 11:13:00,
2013-04-22 07:18:00,38.2,34.1,30.44,South,177,13.0,14.0,85,0.00,,OVC110,0.00,VWS V13.01,2013-04-22 11:18:00,
2013-04-22 07:23:00,38.2,34.1,30.44,SSE,161,9.0,16.0,85,0.00,,OVC110,0.00,VWS V13.01,2013-04-22 11:23:00,
2013-04-22 07:28:00,38.2,33.8,30.44,South,170,10.0,16.0,84,0.00,,OVC110,0.00,VWS V13.01,2013-04-22 11:28:00,
2013-04-22 07:33:00,38.2,34.1,30.44,South,175,13.0,14.0,85,0.00,,OVC110,0.00,VWS V13.01,2013-04-22 11:33:00,
2013-04-22 07:38:00,38.1,34.0,30.44,SSE,164,9.0,15.0,85,0.00,,OVC110,0.00,VWS V13.01,2013-04-22 11:38:00,
2013-04-22 07:43:00,38.2,34.1,30.44,South,176,10.0,15.0,85,0.00,,OVC110,0.00,VWS V13.01,2013-04-22 11:43:00,
2013-04-22 07:48:00,38.2,34.1,30.44,South,180,12.0,14.0,85,0.00,,OVC110,0.00,VWS V13.01,2013-04-22 11:48:00,
2013-04-22 07:53:00,38.2,33.8,30.44,South,182,11.0,14.0,84,0.00,,OVC110,0.00,VWS V13.01,2013-04-22 11:53:00,
2013-04-22 07:58:00,38.3,33.9,30.44,South,176,12.0,14.0,84,0.00,,OVC110,0.00,VWS V13.01,2013-04-22 11:58:00,
2013-04-22 08:03:00,38.4,34.3,30.44,South,173,11.0,13.0,85,0.00,,BKN120,0.00,VWS V13.01,2013-04-22 12:03:00,
2013-04-22 08:08:00,38.5,34.4,30.44,South,179,12.0,12.0,85,0.00,,BKN120,0.00,VWS V13.01,2013-04-22 12:08:00,
2013-04-22 08:13:00,38.4,34.0,30.44,SSE,165,10.0,14.0,84,0.00,,BKN120,0.00,VWS V13.01,2013-04-22 12:13:00,
2013-04-22 08:18:00,38.4,34.3,30.44,South,186,10.0,14.0,85,0.00,,BKN120,0.00,VWS V13.01,2013-04-22 12:18:00,
2013-04-22 08:23:00,38.4,34.0,30.44,South,181,10.0,13.0,84,0.00,,BKN120,0.00,VWS V13.01,2013-04-22 12:23:00,
2013-04-22 08:28:00,38.5,34.4,30.44,SSE,157,11.0,12.0,85,0.00,,BKN120,0.00,VWS V13.01,2013-04-22 12:28:00,
2013-04-22 08:33:00,38.6,34.5,30.44,South,176,8.0,13.0,85,0.00,,BKN120,0.00,VWS V13.01,2013-04-22 12:33:00,
2013-04-22 08:38:00,38.6,34.5,30.44,South,169,11.0,13.0,85,0.00,,BKN120,0.00,VWS V13.01,2013-04-22 12:38:00,
2013-04-22 08:43:00,38.6,34.5,30.44,South,172,9.0,12.0,85,0.00,,BKN120,0.00,VWS V13.01,2013-04-22 12:43:00,
2013-04-22 08:48:00,38.5,34.1,30.44,SSE,166,11.0,13.0,84,0.00,,BKN120,0.00,VWS V13.01,2013-04-22 12:48:00,
2013-04-22 08:53:00,38.4,34.0,30.44,South,173,10.0,12.0,84,0.00,,BKN120,0.00,VWS V13.01,2013-04-22 12:53:00,
2013-04-22 08:58:00,38.4,33.7,30.44,South,173,11.0,13.0,83,0.00,,BKN120,0.00,VWS V13.01,2013-04-22 12:58:00,
2013-04-22 09:03:00,38.6,34.5,30.44,South,172,10.0,14.0,85,0.00,,OVC110,0.00,VWS V13.01,2013-04-22 13:03:00,
2013-04-22 09:08:00,38.7,34.6,30.44,South,179,8.0,11.0,85,0.00,,OVC110,0.00,VWS V13.01,2013-04-22 13:08:00,
2013-04-22 09:13:00,38.6,34.2,30.44,South,186,9.0,11.0,84,0.00,,OVC110,0.00,VWS V13.01,2013-04-22 13:13:00,
2013-04-22 09:18:00,38.6,34.2,30.44,South,188,6.0,12.0,84,0.00,,OVC110,0.00,VWS V13.01,2013-04-22 13:18:00,
2013-04-22 09:23:00,38.6,34.2,30.44,South,186,8.0,10.0,84,0.00,,OVC110,0.00,VWS V13.01,2013-04-22 13:23:00,
2013-04-22 09:29:00,38.6,34.2,30.44,South,169,7.0,10.0,84,0.00,,OVC110,0.00,VWS V13.01,2013-04-22 13:29:00,
2013-04-22 09:34:00,38.6,34.5,30.44,South,180,6.0,10.0,85,0.00,,OVC110,0.00,VWS V13.01,2013-04-22 13:34:00,
2013-04-22 09:39:00,38.7,34.3,30.44,South,173,8.0,10.0,84,0.00,,OVC110,0.00,VWS V13.01,2013-04-22 13:39:00,
2013-04-22 09:44:00,38.8,34.7,30.44,South,178,7.0,10.0,85,0.00,,OVC110,0.00,VWS V13.01,2013-04-22 13:44:00,
2013-04-22 09:49:00,39.1,34.7,30.43,South,169,7.0,10.0,84,0.00,,OVC110,0.00,VWS V13.01,2013-04-22 13:49:00,
2013-04-22 09:54:00,39.1,34.7,30.43,SSE,162,6.0,9.0,84,0.00,,OVC110,0.00,VWS V13.01,2013-04-22 13:54:00,
2013-04-22 09:59:00,39.1,34.7,30.43,South,175,7.0,10.0,84,0.00,,OVC110,0.00,VWS V13.01,2013-04-22 13:59:00,
2013-04-22 10:04:00,39.2,35.1,30.43,South,175,8.0,9.0,85,0.00,,OVC110,0.00,VWS V13.01,2013-04-22 14:04:00,
2013-04-22 10:09:00,39.3,34.9,30.43,South,177,8.0,9.0,84,0.00,,OVC110,0.00,VWS V13.01,2013-04-22 14:09:00,
2013-04-22 10:14:00,39.5,35.1,30.43,SSE,160,5.0,8.0,84,0.00,,OVC110,0.00,VWS V13.01,2013-04-22 14:14:00,
2013-04-22 10:19:00,39.8,35.4,30.43,SSE,157,7.0,8.0,84,0.00,,OVC110,0.00,VWS V13.01,2013-04-22 14:19:00,
2013-04-22 10:24:00,39.9,35.2,30.43,SE,146,6.0,9.0,83,0.00,,OVC110,0.00,VWS V13.01,2013-04-22 14:24:00,
2013-04-22 10:29:00,40.3,35.6,30.43,SE,145,9.0,10.0,83,0.00,,OVC110,0.00,VWS V13.01,2013-04-22 14:29:00,
2013-04-22 10:34:00,40.7,36.0,30.43,SSE,155,7.0,10.0,83,0.00,,OVC110,0.00,VWS V13.01,2013-04-22 14:34:00,
2013-04-22 10:39:00,41.0,36.2,30.42,SE,138,9.0,10.0,83,0.00,,OVC110,0.00,VWS V13.01,2013-04-22 14:39:00,
2013-04-22 10:44:00,41.2,36.4,30.42,SE,139,8.0,10.0,83,0.00,,OVC110,0.00,VWS V13.01,2013-04-22 14:44:00,
2013-04-22 10:49:00,41.1,36.0,30.42,SSE,150,8.0,10.0,82,0.00,,OVC110,0.00,VWS V13.01,2013-04-22 14:49:00,
2013-04-22 10:54:00,41.2,36.1,30.42,SE,145,9.0,10.0,82,0.00,,OVC110,0.00,VWS V13.01,2013-04-22 14:54:00,
2013-04-22 10:59:00,41.1,36.0,30.42,SSE,147,7.0,10.0,82,0.00,,OVC110,0.00,VWS V13.01,2013-04-22 14:59:00,
2013-04-22 11:04:00,41.1,36.0,30.42,SE,139,10.0,11.0,82,0.00,,OVC095,0.00,VWS V13.01,2013-04-22 15:04:00,
2013-04-22 11:09:00,41.1,36.0,30.42,SSE,150,8.0,11.0,82,0.00,,OVC095,0.00,VWS V13.01,2013-04-22 15:09:00,
2013-04-22 11:14:00,41.1,35.7,30.42,SSE,157,6.0,10.0,81,0.00,,OVC095,0.00,VWS V13.01,2013-04-22 15:14:00,
2013-04-22 11:19:00,41.3,36.2,30.42,SSE,157,8.0,9.0,82,0.00,,OVC095,0.00,VWS V13.01,2013-04-22 15:19:00,
2013-04-22 11:24:00,41.4,36.0,30.42,South,170,6.0,8.0,81,0.00,,OVC095,0.00,VWS V13.01,2013-04-22 15:24:00,
2013-04-22 11:29:00,41.7,36.6,30.42,SSE,150,6.0,7.0,82,0.00,,OVC095,0.00,VWS V13.01,2013-04-22 15:29:00,
2013-04-22 11:34:00,42.5,37.7,30.42,SE,135,7.0,9.0,83,0.00,,OVC095,0.00,VWS V13.01,2013-04-22 15:34:00,
2013-04-22 11:39:00,42.5,36.5,30.42,SSE,148,7.0,10.0,79,0.00,,OVC095,0.00,VWS V13.01,2013-04-22 15:39:00,
2013-04-22 11:44:00,42.2,35.8,30.43,SSE,159,4.0,8.0,78,0.00,,OVC095,0.00,VWS V13.01,2013-04-22 15:44:00,
2013-04-22 11:49:00,42.1,36.4,30.43,SSE,155,3.0,5.0,80,0.00,,OVC095,0.00,VWS V13.01,2013-04-22 15:49:00,
2013-04-22 11:54:00,42.5,37.4,30.43,SE,135,5.0,5.0,82,0.00,,OVC095,0.00,VWS V13.01,2013-04-22 15:54:00,
2013-04-22 11:59:00,43.3,37.6,30.43,SE,133,6.0,6.0,80,0.00,,OVC095,0.00,VWS V13.01,2013-04-22 15:59:00,
2013-04-22 12:04:00,44.0,38.5,30.42,ESE,121,5.0,7.0,81,0.00,,FEW100,0.00,VWS V13.01,2013-04-22 16:04:00,
2013-04-22 12:09:00,44.1,38.7,30.42,ESE,109,5.0,7.0,81,0.00,,FEW100,0.00,VWS V13.01,2013-04-22 16:09:00,
2013-04-22 12:14:00,43.8,38.4,30.42,East,98,7.0,8.0,81,0.00,,FEW100,0.00,VWS V13.01,2013-04-22 16:14:00,
2013-04-22 12:19:00,43.7,38.3,30.42,ESE,107,7.0,8.0,81,0.00,,FEW100,0.00,VWS V13.01,2013-04-22 16:19:00,
2013-04-22 12:24:00,43.4,37.3,30.42,East,97,6.0,8.0,79,0.00,,FEW100,0.00,VWS V13.01,2013-04-22 16:24:00,
2013-04-22 12:29:00,43.5,37.8,30.42,East,101,6.0,7.0,80,0.00,,FEW100,0.00,VWS V13.01,2013-04-22 16:29:00,
2013-04-22 12:34:00,43.8,38.0,30.41,East,96,8.0,8.0,80,0.00,,FEW100,0.00,VWS V13.01,2013-04-22 16:34:00,
2013-04-22 12:39:00,44.1,38.0,30.41,East,99,7.0,7.0,79,0.00,,FEW100,0.00,VWS V13.01,2013-04-22 16:39:00,
2013-04-22 12:44:00,44.6,38.8,30.41,ESE,107,5.0,8.0,80,0.00,,FEW100,0.00,VWS V13.01,2013-04-22 16:44:00,
2013-04-22 12:49:00,45.2,39.1,30.41,ESE,110,4.0,7.0,79,0.00,,FEW100,0.00,VWS V13.01,2013-04-22 16:49:00,
2013-04-22 12:54:00,45.7,39.2,30.40,ESE,111,5.0,7.0,78,0.00,,FEW100,0.00,VWS V13.01,2013-04-22 16:54:00,
2013-04-22 12:59:00,45.9,39.4,30.40,ESE,110,4.0,5.0,78,0.00,,FEW100,0.00,VWS V13.01,2013-04-22 16:59:00,
2013-04-22 13:04:00,46.4,40.2,30.40,ESE,110,4.0,5.0,79,0.00,,FEW100,0.00,VWS V13.01,2013-04-22 17:04:00,
2013-04-22 13:09:00,46.4,40.6,30.40,ESE,107,7.0,7.0,80,0.00,,FEW100,0.00,VWS V13.01,2013-04-22 17:09:00,
2013-04-22 13:14:00,46.3,39.5,30.39,ESE,103,4.0,7.0,77,0.00,,FEW100,0.00,VWS V13.01,2013-04-22 17:14:00,
2013-04-22 13:19:00,46.4,40.6,30.39,ESE,111,8.0,8.0,80,0.00,,FEW100,0.00,VWS V13.01,2013-04-22 17:19:00,
2013-04-22 13:24:00,46.3,40.5,30.39,ESE,111,7.0,9.0,80,0.00,,FEW100,0.00,VWS V13.01,2013-04-22 17:24:00,
2013-04-22 13:30:00,46.5,40.7,30.39,ESE,111,7.0,8.0,80,0.00,,FEW100,0.00,VWS V13.01,2013-04-22 17:30:00,
2013-04-22 13:35:00,46.5,41.3,30.38,ESE,111,7.0,8.0,82,0.00,,FEW100,0.00,VWS V13.01,2013-04-22 17:35:00,
2013-04-22 13:40:00,46.4,41.2,30.38,ESE,109,8.0,9.0,82,0.00,,FEW100,0.00,VWS V13.01,2013-04-22 17:40:00,
2013-04-22 13:45:00,46.4,41.5,30.38,ESE,109,9.0,9.0,83,0.00,,FEW100,0.00,VWS V13.01,2013-04-22 17:45:00,
2013-04-22 13:50:00,46.3,40.8,30.37,ESE,106,8.0,10.0,81,0.00,,FEW100,0.00,VWS V13.01,2013-04-22 17:50:00,
2013-04-22 13:55:00,46.7,41.2,30.37,ESE,106,8.0,9.0,81,0.00,,FEW100,0.00,VWS V13.01,2013-04-22 17:55:00,
2013-04-22 14:00:00,46.9,41.1,30.37,ESE,108,7.0,9.0,80,0.00,,FEW100,0.00,VWS V13.01,2013-04-22 18:00:00,
2013-04-22 14:05:00,47.4,41.2,30.36,ESE,103,5.0,8.0,79,0.00,,CLR,0.00,VWS V13.01,2013-04-22 18:05:00,
2013-04-22 14:10:00,47.9,40.7,30.36,ESE,105,5.0,8.0,76,0.00,,CLR,0.00,VWS V13.01,2013-04-22 18:10:00,
2013-04-22 14:15:00,48.3,42.1,30.36,ESE,105,7.0,7.0,79,0.00,,CLR,0.00,VWS V13.01,2013-04-22 18:15:00,
2013-04-22 14:20:00,48.3,42.1,30.36,ESE,105,5.0,7.0,79,0.00,,CLR,0.00,VWS V13.01,2013-04-22 18:20:00,
2013-04-22 14:25:00,48.4,41.9,30.35,ESE,111,8.0,8.0,78,0.00,,CLR,0.00,VWS V13.01,2013-04-22 18:25:00,
2013-04-22 14:30:00,48.2,41.7,30.35,ESE,109,8.0,8.0,78,0.00,,CLR,0.00,VWS V13.01,2013-04-22 18:30:00,
2013-04-22 14:35:00,48.2,42.0,30.35,ESE,109,7.0,9.0,79,0.00,,CLR,0.00,VWS V13.01,2013-04-22 18:35:00,
2013-04-22 14:40:00,48.3,42.1,30.35,ESE,108,8.0,9.0,79,0.00,,CLR,0.00,VWS V13.01,2013-04-22 18:40:00,
2013-04-22 14:45:00,48.2,42.0,30.35,ESE,107,9.0,10.0,79,0.00,,CLR,0.00,VWS V13.01,2013-04-22 18:45:00,
2013-04-22 14:50:00,48.6,41.4,30.35,East,98,7.0,10.0,76,0.00,,CLR,0.00,VWS V13.01,2013-04-22 18:50:00,
2013-04-22 14:55:00,48.9,42.0,30.35,ESE,103,8.0,9.0,77,0.00,,CLR,0.00,VWS V13.01,2013-04-22 18:55:00,
2013-04-22 15:00:00,48.7,42.2,30.35,ESE,104,9.0,10.0,78,0.00,,CLR,0.00,VWS V13.01,2013-04-22 19:00:00,
2013-04-22 15:05:00,47.9,42.4,30.34,ESE,115,9.0,10.0,81,0.00,,CLR,0.00,VWS V13.01,2013-04-22 19:05:00,
2013-04-22 15:10:00,47.8,42.6,30.34,ESE,111,8.0,10.0,82,0.00,,CLR,0.00,VWS V13.01,2013-04-22 19:10:00,
2013-04-22 15:15:00,48.3,42.1,30.34,ESE,117,8.0,9.0,79,0.00,,CLR,0.00,VWS V13.01,2013-04-22 19:15:00,
2013-04-22 15:20:00,48.2,42.3,30.33,ESE,109,9.0,9.0,80,0.00,,CLR,0.00,VWS V13.01,2013-04-22 19:20:00,
2013-04-22 15:25:00,48.1,42.5,30.33,ESE,111,9.0,10.0,81,0.00,,CLR,0.00,VWS V13.01,2013-04-22 19:25:00,
2013-04-22 15:30:00,48.2,42.3,30.33,ESE,113,8.0,10.0,80,0.00,,CLR,0.00,VWS V13.01,2013-04-22 19:30:00,
2013-04-22 15:35:00,48.2,42.0,30.33,ESE,110,8.0,9.0,79,0.00,,CLR,0.00,VWS V13.01,2013-04-22 19:35:00,
2013-04-22 15:40:00,48.5,42.6,30.32,ESE,107,8.0,10.0,80,0.00,,CLR,0.00,VWS V13.01,2013-04-22 19:40:00,
2013-04-22 15:45:00,48.8,42.6,30.32,ESE,111,8.0,10.0,79,0.00,,CLR,0.00,VWS V13.01,2013-04-22 19:45:00,
2013-04-22 15:50:00,48.8,42.9,30.32,ESE,109,8.0,10.0,80,0.00,,CLR,0.00,VWS V13.01,2013-04-22 19:50:00,
2013-04-22 15:55:00,49.2,42.3,30.31,ESE,114,8.0,10.0,77,0.00,,CLR,0.00,VWS V13.01,2013-04-22 19:55:00,
2013-04-22 16:00:00,49.5,41.9,30.31,ESE,123,8.0,9.0,75,0.00,,CLR,0.00,VWS V13.01,2013-04-22 20:00:00,
2013-04-22 16:05:00,49.9,41.6,30.31,ESE,115,8.0,9.0,73,0.00,,CLR,0.00,VWS V13.01,2013-04-22 20:05:00,
2013-04-22 16:10:00,50.5,41.5,30.31,ESE,109,7.0,11.0,71,0.00,,CLR,0.00,VWS V13.01,2013-04-22 20:10:00,
2013-04-22 16:15:00,50.7,40.5,30.31,ESE,105,7.0,9.0,68,0.00,,CLR,0.00,VWS V13.01,2013-04-22 20:15:00,
2013-04-22 16:20:00,51.5,38.1,30.30,ESE,103,8.0,13.0,60,0.00,,CLR,0.00,VWS V13.01,2013-04-22 20:20:00,
2013-04-22 16:25:00,51.3,39.2,30.30,ESE,106,9.0,12.0,63,0.00,,CLR,0.00,VWS V13.01,2013-04-22 20:25:00,
2013-04-22 16:30:00,50.7,40.5,30.30,ESE,107,8.0,9.0,68,0.00,,CLR,0.00,VWS V13.01,2013-04-22 20:30:00,
2013-04-22 16:35:00,50.2,40.8,30.30,ESE,109,8.0,9.0,70,0.00,,CLR,0.00,VWS V13.01,2013-04-22 20:35:00,
2013-04-22 16:40:00,50.3,41.3,30.30,ESE,106,7.0,8.0,71,0.00,,CLR,0.00,VWS V13.01,2013-04-22 20:40:00,
2013-04-22 16:45:00,50.4,41.0,30.30,ESE,111,5.0,8.0,70,0.00,,CLR,0.00,VWS V13.01,2013-04-22 20:45:00,
2013-04-22 16:50:00,50.5,41.1,30.29,ESE,107,7.0,8.0,70,0.00,,CLR,0.00,VWS V13.01,2013-04-22 20:50:00,
2013-04-22 16:55:00,50.6,41.9,30.29,ESE,113,5.0,8.0,72,0.00,,CLR,0.00,VWS V13.01,2013-04-22 20:55:00,
2013-04-22 17:00:00,50.3,41.3,30.29,ESE,108,7.0,8.0,71,0.00,,CLR,0.00,VWS V13.01,2013-04-22 21:00:00,
2013-04-22 17:06:00,49.8,41.2,30.28,ESE,109,8.0,9.0,72,0.00,,CLR,0.00,VWS V13.01,2013-04-22 21:06:00,
2013-04-22 17:11:00,49.9,42.0,30.28,ESE,105,8.0,9.0,74,0.00,,CLR,0.00,VWS V13.01,2013-04-22 21:11:00,
2013-04-22 17:16:00,49.7,42.1,30.28,ESE,107,7.0,9.0,75,0.00,,CLR,0.00,VWS V13.01,2013-04-22 21:16:00,
2013-04-22 17:21:00,49.9,41.6,30.28,ESE,104,7.0,9.0,73,0.00,,CLR,0.00,VWS V13.01,2013-04-22 21:21:00,
2013-04-22 17:26:00,50.2,41.9,30.28,East,101,7.0,10.0,73,0.00,,CLR,0.00,VWS V13.01,2013-04-22 21:26:00,
2013-04-22 17:31:00,50.0,41.7,30.27,ESE,106,5.0,9.0,73,0.00,,CLR,0.00,VWS V13.01,2013-04-22 21:31:00,
2013-04-22 17:36:00,49.8,42.2,30.27,ESE,113,5.0,8.0,75,0.00,,CLR,0.00,VWS V13.01,2013-04-22 21:36:00,
2013-04-22 17:41:00,49.7,42.1,30.27,ESE,107,5.0,8.0,75,0.00,,CLR,0.00,VWS V13.01,2013-04-22 21:41:00,
2013-04-22 17:46:00,50.4,41.0,30.27,East,94,8.0,9.0,70,0.00,,CLR,0.00,VWS V13.01,2013-04-22 21:46:00,
2013-04-22 17:51:00,50.9,41.8,30.27,East,98,5.0,9.0,71,0.00,,CLR,0.00,VWS V13.01,2013-04-22 21:51:00,
2013-04-22 17:56:00,51.6,40.2,30.27,East,83,2.0,8.0,65,0.00,,CLR,0.00,VWS V13.01,2013-04-22 21:56:00,
2013-04-22 18:01:00,52.4,40.2,30.27,ESE,103,8.0,10.0,63,0.00,,CLR,0.00,VWS V13.01,2013-04-22 22:01:00,
2013-04-22 18:06:00,52.1,41.9,30.27,East,101,7.0,9.0,68,0.00,,CLR,0.00,VWS V13.01,2013-04-22 22:06:00,
2013-04-22 18:11:00,51.0,41.9,30.26,East,99,11.0,13.0,71,0.00,,CLR,0.00,VWS V13.01,2013-04-22 22:11:00,
2013-04-22 18:16:00,50.4,42.8,30.26,East,97,10.0,12.0,75,0.00,,CLR,0.00,VWS V13.01,2013-04-22 22:16:00,
2013-04-22 18:21:00,49.9,42.3,30.26,ESE,107,11.0,13.0,75,0.00,,CLR,0.00,VWS V13.01,2013-04-22 22:21:00,
2013-04-22 18:26:00,49.5,41.9,30.26,ESE,103,10.0,12.0,75,0.00,,CLR,0.00,VWS V13.01,2013-04-22 22:26:00,
2013-04-22 18:31:00,49.4,41.8,30.26,East,101,11.0,14.0,75,0.00,,CLR,0.00,VWS V13.01,2013-04-22 22:31:00,
2013-04-22 18:36:00,49.9,42.0,30.25,East,89,8.0,11.0,74,0.00,,CLR,0.00,VWS V13.01,2013-04-22 22:36:00,
2013-04-22 18:41:00,50.5,42.5,30.25,East,98,9.0,11.0,74,0.00,,CLR,0.00,VWS V13.01,2013-04-22 22:41:00,
2013-04-22 18:46:00,50.9,41.1,30.24,ESE,106,9.0,12.0,69,0.00,,CLR,0.00,VWS V13.01,2013-04-22 22:46:00,
2013-04-22 18:51:00,51.1,42.0,30.24,ESE,103,12.0,15.0,71,0.00,,CLR,0.00,VWS V13.01,2013-04-22 22:51:00,
2013-04-22 18:56:00,50.3,41.6,30.24,East,100,15.0,16.0,72,0.00,,CLR,0.00,VWS V13.01,2013-04-22 22:56:00,
2013-04-22 19:01:00,50.3,42.0,30.24,East,99,13.0,14.0,73,0.00,,CLR,0.00,VWS V13.01,2013-04-22 23:01:00,
2013-04-22 19:06:00,50.6,41.6,30.24,East,97,13.0,14.0,71,0.00,,CLR,0.00,VWS V13.01,2013-04-22 23:06:00,
2013-04-22 19:11:00,50.3,40.9,30.24,East,101,13.0,17.0,70,0.00,,CLR,0.00,VWS V13.01,2013-04-22 23:11:00,
2013-04-22 19:16:00,49.6,41.7,30.24,East,89,13.0,17.0,74,0.00,,CLR,0.00,VWS V13.01,2013-04-22 23:16:00,
2013-04-22 19:21:00,49.1,40.8,30.23,East,97,15.0,17.0,73,0.00,,CLR,0.00,VWS V13.01,2013-04-22 23:21:00,
2013-04-22 19:26:00,48.8,41.2,30.23,ESE,106,15.0,16.0,75,0.00,,CLR,0.00,VWS V13.01,2013-04-22 23:26:00,
2013-04-22 19:31:00,48.4,41.5,30.23,ESE,104,12.0,18.0,77,0.00,,CLR,0.00,VWS V13.01,2013-04-22 23:31:00,
2013-04-22 19:36:00,48.4,40.8,30.23,East,98,14.0,16.0,75,0.00,,CLR,0.00,VWS V13.01,2013-04-22 23:36:00,
2013-04-22 19:41:00,48.6,40.7,30.23,ESE,104,13.0,17.0,74,0.00,,CLR,0.00,VWS V13.01,2013-04-22 23:41:00,
2013-04-22 19:46:00,48.5,41.0,30.23,East,96,15.0,18.0,75,0.00,,CLR,0.00,VWS V13.01,2013-04-22 23:46:00,
2013-04-22 19:51:00,48.3,40.8,30.23,East,98,14.0,18.0,75,0.00,,CLR,0.00,VWS V13.01,2013-04-22 23:51:00,
2013-04-22 19:56:00,48.1,40.9,30.23,East,94,15.0,18.0,76,0.00,,CLR,0.00,VWS V13.01,2013-04-22 23:56:00,
2013-04-22 20:01:00,48.0,41.2,30.23,East,100,14.0,17.0,77,0.00,,CLR,0.00,VWS V13.01,2013-04-23 00:01:00,
2013-04-22 20:06:00,48.1,41.2,30.23,ESE,103,15.0,17.0,77,0.00,,CLR,0.00,VWS V13.01,2013-04-23 00:06:00,
2013-04-22 20:11:00,48.1,40.9,30.23,ESE,104,13.0,17.0,76,0.00,,CLR,0.00,VWS V13.01,2013-04-23 00:11:00,
2013-04-22 20:16:00,48.1,41.2,30.23,ESE,105,14.0,17.0,77,0.00,,CLR,0.00,VWS V13.01,2013-04-23 00:16:00,
2013-04-22 20:21:00,47.9,41.4,30.23,ESE,112,12.0,17.0,78,0.00,,CLR,0.00,VWS V13.01,2013-04-23 00:21:00,
2013-04-22 20:26:00,47.8,41.3,30.23,ESE,105,16.0,16.0,78,0.00,,CLR,0.00,VWS V13.01,2013-04-23 00:26:00,
2013-04-22 20:31:00,47.6,40.4,30.23,ESE,104,12.0,16.0,76,0.00,,CLR,0.00,VWS V13.01,2013-04-23 00:31:00,
2013-04-22 20:36:00,47.5,40.7,30.23,ESE,103,13.0,15.0,77,0.00,,CLR,0.00,VWS V13.01,2013-04-23 00:36:00,
2013-04-22 20:41:00,47.7,41.2,30.23,ESE,109,14.0,15.0,78,0.00,,CLR,0.00,VWS V13.01,2013-04-23 00:41:00,
2013-04-22 20:46:00,47.8,41.0,30.22,ESE,107,14.0,16.0,77,0.00,,CLR,0.00,VWS V13.01,2013-04-23 00:46:00,
2013-04-22 20:51:00,47.7,40.8,30.23,ESE,103,11.0,15.0,77,0.00,,CLR,0.00,VWS V13.01,2013-04-23 00:51:00,
2013-04-22 20:56:00,47.5,41.0,30.23,ESE,110,14.0,15.0,78,0.00,,CLR,0.00,VWS V13.01,2013-04-23 00:56:00,
2013-04-22 21:01:00,47.3,41.1,30.23,East,94,13.0,16.0,79,0.00,,CLR,0.00,VWS V13.01,2013-04-23 01:01:00,
2013-04-22 21:06:00,47.1,40.6,30.23,ESE,105,13.0,14.0,78,0.00,,CLR,0.00,VWS V13.01,2013-04-23 01:06:00,
2013-04-22 21:11:00,47.2,40.7,30.23,ESE,107,11.0,15.0,78,0.00,,CLR,0.00,VWS V13.01,2013-04-23 01:11:00,
2013-04-22 21:16:00,47.2,40.7,30.23,ESE,105,13.0,15.0,78,0.00,,CLR,0.00,VWS V13.01,2013-04-23 01:16:00,
2013-04-22 21:21:00,47.2,40.7,30.23,ESE,103,12.0,16.0,78,0.00,,CLR,0.00,VWS V13.01,2013-04-23 01:21:00,
2013-04-22 21:26:00,47.0,40.5,30.23,ESE,102,12.0,15.0,78,0.00,,CLR,0.00,VWS V13.01,2013-04-23 01:26:00,
2013-04-22 21:31:00,46.8,40.6,30.23,ESE,105,13.0,15.0,79,0.00,,CLR,0.00,VWS V13.01,2013-04-23 01:31:00,
2013-04-22 21:36:00,46.6,40.5,30.23,East,98,11.0,16.0,79,0.00,,CLR,0.00,VWS V13.01,2013-04-23 01:36:00,
2013-04-22 21:41:00,46.3,40.5,30.23,East,94,11.0,14.0,80,0.00,,CLR,0.00,VWS V13.01,2013-04-23 01:41:00,
2013-04-22 21:46:00,46.3,40.5,30.23,East,98,10.0,13.0,80,0.00,,CLR,0.00,VWS V13.01,2013-04-23 01:46:00,
2013-04-22 21:51:00,46.2,40.4,30.23,ESE,107,11.0,14.0,80,0.00,,CLR,0.00,VWS V13.01,2013-04-23 01:51:00,
2013-04-22 21:56:00,46.3,40.5,30.23,East,96,10.0,13.0,80,0.00,,CLR,0.00,VWS V13.01,2013-04-23 01:56:00,
2013-04-22 22:01:00,46.2,40.1,30.23,East,99,9.0,14.0,79,0.00,,CLR,0.00,VWS V13.01,2013-04-23 02:01:00,
2013-04-22 22:06:00,46.1,40.0,30.23,East,98,11.0,14.0,79,0.00,,CLR,0.00,VWS V13.01,2013-04-23 02:06:00,
2013-04-22 22:11:00,46.0,40.2,30.23,East,101,13.0,15.0,80,0.00,,CLR,0.00,VWS V13.01,2013-04-23 02:11:00,
2013-04-22 22:16:00,45.9,40.1,30.22,ESE,103,13.0,15.0,80,0.00,,CLR,0.00,VWS V13.01,2013-04-23 02:16:00,
2013-04-22 22:21:00,45.6,39.8,30.22,East,100,11.0,16.0,80,0.00,,CLR,0.00,VWS V13.01,2013-04-23 02:21:00,
2013-04-22 22:26:00,45.5,40.0,30.22,ESE,105,13.0,16.0,81,0.00,,CLR,0.00,VWS V13.01,2013-04-23 02:26:00,
2013-04-22 22:31:00,45.6,40.1,30.22,East,95,13.0,16.0,81,0.00,,CLR,0.00,VWS V13.01,2013-04-23 02:31:00,
2013-04-22 22:36:00,45.5,39.7,30.22,East,98,13.0,15.0,80,0.00,,CLR,0.00,VWS V13.01,2013-04-23 02:36:00,
2013-04-22 22:41:00,45.1,39.9,30.22,East,92,13.0,14.0,82,0.00,,CLR,0.00,VWS V13.01,2013-04-23 02:41:00,
2013-04-22 22:46:00,45.0,39.8,30.22,ESE,107,12.0,14.0,82,0.00,,CLR,0.00,VWS V13.01,2013-04-23 02:46:00,
2013-04-22 22:51:00,45.1,40.2,30.22,ESE,103,10.0,14.0,83,0.00,,CLR,0.00,VWS V13.01,2013-04-23 02:51:00,
2013-04-22 22:56:00,44.9,39.8,30.22,ESE,110,13.0,14.0,82,0.00,,CLR,0.00,VWS V13.01,2013-04-23 02:56:00,
2013-04-22 23:01:00,45.1,39.9,30.22,ESE,106,11.0,14.0,82,0.00,,CLR,0.00,VWS V13.01,2013-04-23 03:01:00,
2013-04-22 23:07:00,45.0,39.8,30.22,ESE,106,10.0,13.0,82,0.00,,CLR,0.00,VWS V13.01,2013-04-23 03:07:00,
2013-04-22 23:12:00,45.1,40.2,30.22,ESE,105,10.0,12.0,83,0.00,,CLR,0.00,VWS V13.01,2013-04-23 03:12:00,
2013-04-22 23:17:00,45.4,39.9,30.22,ESE,115,11.0,13.0,81,0.00,,CLR,0.00,VWS V13.01,2013-04-23 03:17:00,
2013-04-22 23:22:00,45.4,40.2,30.22,ESE,111,11.0,13.0,82,0.00,,CLR,0.00,VWS V13.01,2013-04-23 03:22:00,
2013-04-22 23:27:00,45.2,40.0,30.22,ESE,113,10.0,12.0,82,0.00,,CLR,0.00,VWS V13.01,2013-04-23 03:27:00,
2013-04-22 23:32:00,45.1,39.9,30.22,ESE,111,10.0,12.0,82,0.00,,CLR,0.00,VWS V13.01,2013-04-23 03:32:00,
2013-04-22 23:37:00,45.1,39.9,30.22,ESE,103,10.0,12.0,82,0.00,,CLR,0.00,VWS V13.01,2013-04-23 03:37:00,
2013-04-22 23:42:00,44.9,39.4,30.22,ESE,103,11.0,11.0,81,0.00,,CLR,0.00,VWS V13.01,2013-04-23 03:42:00,
2013-04-22 23:47:00,44.9,39.8,30.21,East,100,9.0,13.0,82,0.00,,CLR,0.00,VWS V13.01,2013-04-23 03:47:00,
2013-04-22 23:52:00,45.0,39.8,30.22,ESE,109,9.0,11.0,82,0.00,,CLR,0.00,VWS V13.01,2013-04-23 03:52:00,
2013-04-22 23:57:00,44.9,39.8,30.22,ESE,112,8.0,11.0,82,0.00,,CLR,0.00,VWS V13.01,2013-04-23 03:57:00,